Hayward, WI

3:42 PM CDT on May 29, 2017 (GMT -0500)
Sawyer County

Weather History for KHYR - March, 2014

Change the Weather History Date:

Saturday, March 8, 2014

  Actual Average Record
Temperature  
Mean Temperature 17 °F -  
Max Temperature 28 °F 42 °F 63 °F (2016)
Min Temperature 6 °F 23 °F -16 °F (2008)
Degree Days  
Heating Degree Days 48    
Moisture  
Dew Point 9 °F    
Average Humidity 67    
Maximum Humidity 92    
Minimum Humidity 43    
Precipitation  
Precipitation 0.00 in - - ()
Sea Level Pressure  
Sea Level Pressure 30.26 in    
Wind  
Wind Speed 3 mph (WSW)    
Max Wind Speed 8 mph    
Max Gust Speed -    
Visibility 10 miles    
Events Snow    
Averages and records for this station are not official NWS values.
T = Trace of Precipitation, MM = Missing Value Source: NWS Daily Summary

Daily Weather History Graph

Daily Weather History Graph

Search for Another Location

Airport or City:

Trip Planner

Search our weather history database for the weather conditions in past years. The results will help you decide how hot, cold, wet, or windy it might be!

Date:

Astronomy

Mar. 08, 2014 Rise Set
Actual Time 6:31 AM CST 6:02 PM CST
Civil Twilight 6:01 AM CST 6:31 PM CST
Nautical Twilight 5:27 AM CST 7:06 PM CST
Astronomical Twilight 4:52 AM CST 7:41 PM CST
Moon 10:52 AM CST (3/8) 1:20 AM CST (3/8)
Length of Visible Light 12h 30m
Length of Day
11h 30m
First Quarter, 52% of the Moon is Illuminated
Mar 8
First Quarter
Mar 16
Full
Mar 23
Last Quarter
Mar 30
New
Apr 7
First Quarter

Hourly Weather History & Observations

Time (CST) Temp. Windchill Dew Point Humidity Pressure Visibility Wind Dir Wind Speed Gust Speed Precip Events Conditions
12:53 AM 21.0 °F 16.2 °F 16.0 °F 81% 30.22 in 6.0 mi Variable 3.5 mph - 0.00 in Snow Light Snow
1:02 AM 21.0 °F 14.6 °F 16.0 °F 81% 30.17 in 5.0 mi Variable 4.6 mph - 0.00 in Snow Light Snow
1:53 AM 19.9 °F - 15.1 °F 81% 30.25 in 10.0 mi Calm Calm - 0.00 in   Overcast
2:53 AM 19.0 °F - 12.9 °F 77% 30.26 in 10.0 mi Calm Calm - N/A   Overcast
3:11 AM 18.0 °F 12.7 °F 12.0 °F 78% 30.20 in 10.0 mi Variable 3.5 mph - N/A   Overcast
3:50 AM 17.6 °F 12.3 °F 12.2 °F 79% 30.21 in 10.0 mi Variable 3.5 mph - N/A   Overcast
3:53 AM 18.0 °F 11.1 °F 12.0 °F 78% 30.27 in 10.0 mi Variable 4.6 mph - N/A   Overcast
4:53 AM 16.0 °F - 10.9 °F 81% 30.29 in 10.0 mi Calm Calm - N/A   Overcast
5:53 AM 10.9 °F - 7.0 °F 84% 30.30 in 10.0 mi Calm Calm - N/A   Scattered Clouds
6:53 AM 6.1 °F - 1.9 °F 83% 30.32 in 10.0 mi Calm Calm - N/A   Clear
7:53 AM 7.0 °F 0.1 °F 5.0 °F 92% 30.33 in 10.0 mi NE 3.5 mph - N/A   Clear
8:53 AM 16.0 °F 8.8 °F 9.0 °F 74% 30.33 in 10.0 mi NE 4.6 mph - N/A   Clear
9:53 AM 19.0 °F - 10.0 °F 68% 30.33 in 10.0 mi Calm Calm - N/A   Mostly Cloudy
10:53 AM 21.9 °F - 10.0 °F 60% 30.32 in 10.0 mi Calm Calm - N/A   Overcast
11:53 AM 23.0 °F 18.4 °F 10.0 °F 58% 30.31 in 10.0 mi Variable 3.5 mph - N/A   Mostly Cloudy
12:22 PM 24.1 °F 19.7 °F 10.0 °F 55% 30.24 in 10.0 mi Variable 3.5 mph - N/A   Partly Cloudy
12:53 PM 25.0 °F 18.1 °F 9.0 °F 51% 30.29 in 10.0 mi Variable 5.8 mph - N/A   Partly Cloudy
1:53 PM 26.1 °F 19.4 °F 8.1 °F 47% 30.26 in 10.0 mi Variable 5.8 mph - N/A   Clear
2:53 PM 28.0 °F 20.0 °F 8.1 °F 43% 30.24 in 10.0 mi WNW 8.1 mph - N/A   Clear
3:53 PM 27.0 °F 19.5 °F 7.0 °F 43% 30.24 in 10.0 mi West 6.9 mph - N/A   Clear
4:53 PM 27.0 °F - 7.0 °F 43% 30.24 in 10.0 mi North - - N/A   Clear
5:53 PM 25.0 °F 19.3 °F 7.0 °F 46% 30.25 in 10.0 mi Variable 4.6 mph - N/A   Clear
6:53 PM 21.9 °F 17.2 °F 6.1 °F 51% 30.25 in 10.0 mi SW 3.5 mph - N/A   Clear
7:53 PM 18.0 °F 12.7 °F 6.1 °F 60% 30.24 in 10.0 mi SSW 3.5 mph - N/A   Clear
8:53 PM 15.1 °F 9.4 °F 5.0 °F 64% 30.23 in 10.0 mi SW 3.5 mph - N/A   Clear
9:53 PM 10.9 °F - 5.0 °F 77% 30.21 in 10.0 mi Calm Calm - N/A   Clear
10:53 PM 10.0 °F - 3.9 °F 76% 30.21 in 10.0 mi Calm Calm - N/A   Clear
11:53 PM 14.0 °F 8.2 °F 5.0 °F 67% 30.17 in 10.0 mi SSW 3.5 mph - N/A   Clear